Starlink 31908

operational
NORAD ID: 59901 Int'l Des: 2024-100 Owner: SPXS Country: US Constellation: starlink
LEOCIRCULAR

Über Starlink 31908

Beschreibung wird geladen...

Live-Position

3D-Globus wird geladen...

Nächste Überflüge

Höhenverlauf

Altitude vs Time

uPlot chart will show altitude changes over time

Zweizeiliger Elementsatz

1 59901U 24100S 25308.50939760 -.00000759 00000-0 -18035-4 0 9992
2 59901 43.0026 105.2964 0001394 263.5984 96.4709 15.27591538 82081
Epoch: 4. Nov. 2025 • Age: 7 hours

Aktueller Status

Höhe 487.0 km
Geschwindigkeit 7.63 km/s
Subsatellitenpunkt 42.79°N, 125.19°W
Startdatum 28. Mai 2024
Alter 1.4 years
Typ internet

Technische Details

Klassifizierung Payload
Masse 730.00 kg
Trockenmasse 700.00 kg
Gesamtmasse 730.00 kg
Länge 0.30 m
Durchmesser 4.10 m
Spannweite 29.00 m
Form Box + pan
Hersteller SPXS
Bus-Typ Starlink V2M
Phasenstatus In Orbit
Besitzer/Staat SPXS/US

Große Konstellationen

Loading constellations...